Regional Weather Roundup
Issued by NWS

Home | Current Version | Previous Version | Text Only | Print | Product List | Glossary On
Versions: 1 2 3 4 5 6 7 8 9 10 11 12 13 14 15 16 17 18 19 20 21 22 23 24 25 26 27 28 29 30 31 32 33 34 35 36 37 38 39 40 41 42 43 44 45 46 47 48 49 50
000
ASUS43 KDTX 020710
RWRMI
MICHIGAN HOURLY REGIONAL WEATHER ROUNDUP
NATIONAL WEATHER SERVICE DETROIT/PONTIAC MI
300 AM EDT THU OCT 02 2014

NOTE: "FAIR" INDICATES FEW OR NO CLOUDS BELOW 12,000 FEET WITH NO
SIGNIFICANT WEATHER AND/OR OBSTRUCTION TO VISIBILITY.

MIZ047>049-052>055-059>063-066>070-074>076-081>083-020800-
SOUTHEAST LOWER MICHIGAN

CITY           SKY/WX    TMP DP  RH WIND       PRES   REMARKS
ADRIAN         FOG       53  53 100 S3        30.04S VSB 1/4
ALMA           PTCLDY    51  49  93 CALM      30.02S FOG
ANN ARBOR      FOG       54  52  93 CALM      30.03F VSB 1/4
BAD AXE        CLEAR     56  56 100 SE5       30.05S FOG
DETROIT CITY   PTCLDY    57  55  93 CALM      30.06  FOG
DETROIT        FOG       57  57 100 CALM      30.04S VSB 1
FLINT          CLOUDY    60  57  89 S7        30.03F FOG
GROSSE ILE     MOCLDY    61  57  88 E3        30.02F FOG
HILLSDALE      PTCLDY    56  56 100 SE6       30.02S FOG
HOWELL         FOG       57  56  99 SE5       30.03S VSB 1

CITY           SKY/WX    TMP DP  RH WIND       PRES   REMARKS
JACKSON        MOCLDY    53  52  96 SE5       30.02S FOG
LAMBERTVILLE     N/A     50  46  87 CALM      30.03F FOG
LANSING        MOCLDY    56  53  90 SE9       30.01F FOG
LAPEER         NOT AVBL
MASON          CLOUDY    55  55  97 SE6       30.02S FOG
MONROE         FOG       48  48 100 CALM      30.02S VSB 1/4
MT. CLEMENS    CLOUDY    61  61 100 E3        30.02S
PONTIAC        CLOUDY    59  57  93 SE5       30.03S FOG
PORT HOPE        N/A     57  55  93 CALM      30.03S
PORT HURON     FOG       57  57 100 E8        30.04F VSB 3/4
TRI CITIES     PTCLDY    53  51  93 S6        30.03S
YPSILANTI      FOG       54  50  86 CALM      30.04F VSB<1/4
$$
MIZ043>046-050>051-056>058-064>065-071>073-077>080-020800-
SOUTHWEST LOWER MICHIGAN

CITY           SKY/WX    TMP DP  RH WIND       PRES   REMARKS
BATTLE CREEK   MOCLDY    56  51  84 SE5       30.00S
BENTON HARBOR  CLOUDY    60  49  66 SE12      29.93S
BIG RAPIDS     PTCLDY    50  50 100 CALM      29.98S
COLDWATER      MOCLDY    57  55  92 SE8       30.00S FOG
GRAND RAPIDS   CLEAR     54  52  93 SE7       29.98F
MARSHALL       MOCLDY    53  52  96 SE6       29.99F FOG
MUSKEGON       CLOUDY    59  49  69 SE15      29.93F
$$
MIZ016>042-020800-
NORTHERN LOWER MICHIGAN

CITY           SKY/WX    TMP DP  RH WIND       PRES   REMARKS
ALPENA         FOG       52  51  97 SE3       30.01F VSB 1
BEAVER ISLAND  CLOUDY    56  54  92 SE6       29.96S
BELLAIRE       MOCLDY    58  51  79 S3        29.96F
CADILLAC       MOCLDY    53  49  87 SE6       29.98S
CHARLEVOIX     MOCLDY    55  54  97 SE5       29.98F
FRANKFORT      CLOUDY    61  49  64 CALM      29.94R
GAYLORD        CLEAR     53  51  93 S9        29.99S FOG
GRAYLING       FOG       51  51 100 CALM      30.00F VSB 1/2
HARBOR SPRINGS MOCLDY    55  53  94 NE5       29.97F FOG
HOUGHTON LAKE  PTCLDY    49  48  97 E6        30.01S FOG
OSCODA         CLOUDY    48  48 100 CALM      30.02F FOG
PELLSTON       CLOUDY    54  54 100 CALM      29.99R FOG
TRAVERSE CITY  CLOUDY    57  49  74 VRB6      29.93F
$$
MIZ007>008-015-020800-
EASTERN UPPER MICHIGAN

CITY           SKY/WX    TMP DP  RH WIND       PRES   REMARKS
MACKINAC ISLAN CLOUDY    56  56  99 SE5       29.98S FOG
NEWBERRY       CLOUDY    55  54  94 SE9G18    29.94F
S. S. MARIE    CLOUDY    57  55  93 SE9       29.99S FOG
$$
MIZ004>006-011>014-085-020800-
CENTRAL UPPER MICHIGAN

CITY           SKY/WX    TMP DP  RH WIND       PRES   REMARKS
MANISTIQUE     CLOUDY    57  54  89 S7        29.94S
SAWYER-GWINN   CLOUDY    52  50  93 S9        29.91S
$$
MIZ001>003-009>011-084-020800-
WESTERN UPPER MICHIGAN

CITY           SKY/WX    TMP DP  RH WIND       PRES   REMARKS
IRON MOUNTAIN  CLOUDY    53  51  93 SE5       29.90S
HOUGHTON       CLOUDY    55  51  86 SW7       29.85S
COPPER HARBOR    N/A     55  51  86 SW6       29.85S
$$

ABBREVIATIONS USED IN REMARKS
   TC - TEMPERATURE IN CELSIUS
  WCI - WIND CHILL INDEX
   HX - HEAT INDEX
  VSB - VISIBILITY



USA.gov is the U.S. government's official web portal to all federal, state and local government web resources and services.